User: anonymous   Login
Location: Unspecified
(0.0000°N, 0.0000°E)
Time: 08:35:28
(UTC+00:00)
Language:

TMSAT-1 - Orbit

View from above orbital plane
View from above orbital plane
View from above satellite
View from above satellite

Ground track
Ground track

The orbit data is extracted from the following two-line orbital elements,

1 25396U 98043C   17263.90056377 +.00000012 +00000-0 +23810-4 0  9996
2 25396 098.5911 205.7748 0003651 059.4604 300.6936 14.24452687997573
Epoch (UTC): 20 September 2017 21:36:48
Eccentricity: 0.0003651
inclination: 98.5911°
perigee height: 808 km
apogee height: 813 km
right ascension of ascending node: 205.7748°
argument of perigee: 59.4604°
revolutions per day: 14.24452687
mean anomaly at epoch: 300.6936°
orbit number at epoch: 99757

The dashed part of the orbit path shows where the satellite is in the earth's shadow,  

DLR